Погода в Когалыме

Погода в Когалыме : погода сейчас, прогноз погоды и архив. Всё, что Вы хотите узнать о погоде в Когалыме!

Хотите узнать прогноз погоды в Когалыме? Тогда Вам сюда: Погода в Когалыме

Поиск расширенной информации на нашем сайте:

Другие новости

Новости СМИ2

Главная страница сайта

Новости сайта

03.07.2017

Напоминаем, что на нашем специализированном сайте Метеоцентр.Азия вы можете получить высокодетализированные автоматические прогнозы погоды по пунктам России, СНГ и мира в авиационном формате (включающие направление и скорость ветра, видимость, явления погоды, количество и форму облачности, нижнюю и верхнюю границу облачности).


Погода в Когалыме - сегодня

Время (UTC), дата Ветер
(°,м/с) 
Видим.   Явления Облачность Т
(°С)
Тd
(°С)
f(%) Тe
(°С)
Pmin
(гПа)
dP
(гПа)
Po
(мм)
O2
(г/м3)
Тmin Tmax R s Состояние
почвы
06 15.02.18 нст () 20000 м    8/5 60 м средняя 
[St|Ac trans]
-21.5 -24 80 -22  1028.3  0.5  764  336           
09 15.02.18 нст () 20000 м    3/0 верхняя 
[Ci fib]
-16.9 -20.3 75 -17  1028.6  0.5  765  330           
12 15.02.18 280 (З) 20000 м    ясно 
-19.5 -22.1 80 -20  1029.6  0.9  765  334           
15 15.02.18 260 (З) 20000 м    ясно 
-24.8 -27.3 80 -25  1030.3  0.5  766  341    -16.9       
18 15.02.18 тихо ()   20000 м    ясно 
-26.7 -29.9 74 -27  1030.5  0.1  766  344           
21 15.02.18 250 (З) 20000 м    8/8 60 м 
[St]
-25.1 -28.3 75 -26  1030.8  0.4  766  342           
00 16.02.18 250 (З) 20000 м    8/8 180 м 
[St]
-24.5 -27.7 75 -25  1031.2  0.4  766  341           
03 16.02.18 250 (З) 20000 м  в посл. час снег  8/8 150 м 
[St]
-21.8 -24.3 80 -22  1031.5  0.4  767  337  -27.2    0.0  38  неравномерный
сухой снег
100% 
09 16.02.18 230 (ЮЗ) 20000 м    6/5 100 м верхняя 
[St|Ci fib]
-15.6 -18.3 80 -19  1031.8  0.3  767  329           
12 16.02.18 220 (ЮЗ) 20000 м    3/3 100 м 
[St]
-17.2 -19.1 85 -21  1031.9  0.1  767  331           
15 16.02.18 210 (ЮЗ) 20000 м    6/6 180 м 
[St]
-17.8 -20.4 80 -23  1031.8  -0.1  767  332    -15.1       
03 17.02.18 210 (ЮЗ) 3000 м  слаб. ливневой снег  10/8 180 м средняя 
[Sc|As op]
-13.4 -15.4 85 -18  1028.5  -0.4  765  325  -19    0.4  40  неравномерный
сухой снег
100% 
09 17.02.18 240 (ЮЗ) 20000 м  в посл. час ливневой снег  5/3 200 м средняя 
[St|Ac trans]
-11.7 -13.7 85 -16  1026.9  -0.5  763  323           
12 17.02.18 210 (ЮЗ) 20000 м  {ливн. осадки}  ясно 
-14 -16.7 80 -19  1026.7  -0.3  763  326           
15 17.02.18 210 (ЮЗ) 20000 м    ясно 
-16.6 -18.5 85 -20  1026.5  -0.2  763  329    -11  0.0     
18 17.02.18 230 (ЮЗ) 20000 м    5/5 600 м 
[Sc]
-15.7 -17.6 85 -19  1025.7  -0.8  762  327           
21 17.02.18 220 (ЮЗ) 20000 м    4/4 600 м 
[Sc]
-17.9 -20.5 80 -22  1025.3  -0.4  762  330           
00 18.02.18 200 (Ю) 20000 м    4/4 300 м 
[St]
-23.1 -26.4 74 -24  1024.7  -0.8  761  337           
03 18.02.18 210 (ЮЗ) 10 км  слаб. ливневой снег  8/5 1200 м кучево-дожд., средняя 
[Cb cap|Ac trans]
-16.7 -18.6 85 -19  1023.7  -0.7  761  328  -23.1    0.0  40  неравномерный
сухой снег
100% 
09 18.02.18 210 (ЮЗ) 20000 м  {ливн. осадки}  4/0 верхняя 
[Ci fib]
-10.8 -12.8 85 -16  1022.1  -0.4  760  320           
12 18.02.18 220 (ЮЗ) 5000 м  слаб. ливневой снег  10/4 1000 м кучево-дожд., средняя 
[Cb cap|As op]
-9.6 -11.7 85 -14  1021.7  -0.4  760  318           
15 18.02.18 230 (ЮЗ) 10 км  слаб. ливневой снег  10/6 420 м кучево-дожд., средняя 
[Cb cap|As op]
-9.1 -11.1 85 -13  1021.5  -0.2  759  318    -9.1  0.3     
18 18.02.18 230 (ЮЗ) 20000 м  в посл. час ливневой снег  10/3 600 м кучево-дожд., средняя 
[Cb cap|As op]
-11.1 -13.1 85 -15  1021.1  -0.4  759  320           
21 18.02.18 240 (ЮЗ) 20000 м    8/4 300 м средняя 
[St|Ac trans]
-15.1 -17.1 85 -19  1021.3  759  325           
00 19.02.18 240 (ЮЗ) 20000 м    6/0 средняя 
[Ac trans]
-14.7 -16.7 85 -18  1021.6  0.3  759  325           
Время (UTC), дата Ветер
(°,м/с) 
Видим.   Явления Облачность Т
(°С)
Тd
(°С)
f(%) Тe
(°С)
Pmin
(гПа)
dP
(гПа)
Po
(мм)
O2
(г/м3)
Тmin Tmax R s Состояние
почвы

Для получения пояснительной информации подведите курсор к названию столбца.

ПОГОДА в Когалыме - архив

Всё, что Вы хотите узнать о погоде в Когалыме - удобно и подробно!

Выберите нужную дату (начиная с 1 января 2015* года) и нажмите кнопку "Найти".
Будут отображены архивные сводки погоды по пункту Когалым, начиная с указанной даты.


Отображать данные в формате CSV (для использования в таблицах Excel)


Внимание! Наш архив погоды предназначен исключительно для личного некоммерческого использования в познавательных целях. Если Вам необходимы официальные справки о состоянии погоды (для производственных, юридических, коммерческих и т.п. целей), обращайтесь в органы Росгидромета.

*Примечание: данная дата относится к архиву по метеостанциям СССР (Россия, СНГ, Балтия).
Архив по метеостанциям Зарубежной Европы и Азии (кроме Китая) хранится 10 дней, по другим регионам земного шара (Китай, Африка, Америка, Австралия, Океания) - 1 день.

Когалым - район местоположения метеостанции


Название, широта, долгота, высота метеостанции:
Когалым 62.2°ш. 74.5°д. 67 м над ур. моря [Российская Федерация]

Дополнительная информация

В oтличие oт бoльшинства пoгoдных сайтoв мы публикуем пoдрoбную метеoинфoрмацию в детальнoм прoфессиoнальнoм фoрмате.

Характеристики температуры и влажнoсти вoздуха измеряются на высoте 2 м в тени вдали oт зданий и деревьев.
Скoрoсть ветра измеряется на высoте 10 м (на урoвне рoста челoвека скoрoсть ветра ниже в 1.5-2 раза). Если метеoстанция нахoдится в гoрoде или в лесу, тo скoрoсть ветра занижена на 2-4 м/с пo сравнению с oткрытым местoм. Скoрoсть ветра над акватoриями крупных рек и oзёр, а также на вершинах хoлмoв на 2-5 м/с выше, чем в oбычных услoвиях.
Атмoсфернoе давление в разных тoчках местнoсти мoжет значительнo oтличаться oт давления на метеoстанции, в зависимoсти oт услoвий рельефа (при пoдъёме на 10 м давление пoнижается примернo на 1 мм рт.ст.).